Wind_Speed
14 14 14 13 19 19 21 23 24 25 26 25 25 26 24 19 20 21 21 22 27 31 34 35 33 31 31 35 34 26 24 20 18 16 17 17 20 19 18 18 14 13 11 9 7 4 2 3 2
16 16 15 16 21 22 22 24 25 26 27 29 26 25 28 25 23 25 24 27 31 34 37 29 32 31 32 33 31 26 22 20 18 16 17 19 20 16 19 19 14 12 10 7 5 2 0 1 1
19 17 17 18 21 25 22 23 25 32 25 31 30 26 27 29 26 29 26 29 32 34 31 27 29 30 31 30 27 24 20 19 17 16 17 16 17 17 18 16 15 12 9 6 4 2 1 2 1
21 21 20 20 22 24 25 29 28 28 30 21 26 25 27 27 27 29 28 27 29 31 27 25 27 28 28 27 25 21 19 19 18 17 16 17 16 17 16 14 13 10 9 6 5 5 4 4 5
23 22 22 22 21 25 29 32 34 28 24 28 26 26 29 31 29 30 27 24 25 21 22 22 24 26 26 26 22 19 17 18 17 17 16 17 16 18 15 12 11 11 9 7 7 7 7 9 9
26 25 22 21 24 28 34 35 36 35 30 28 29 31 33 33 33 26 25 19 19 18 18 20 20 23 22 21 18 20 18 17 17 17 16 16 17 17 15 11 12 12 12 11 11 10 12 13 13
27 26 23 27 28 30 39 35 38 37 35 32 34 30 32 36 35 31 28 24 19 19 21 22 23 22 20 17 16 20 19 19 19 18 17 17 16 16 15 14 15 16 17 15 14 14 15 15 15
31 30 27 34 36 34 37 34 38 39 31 33 35 35 35 36 37 38 36 25 21 21 24 25 23 22 20 15 17 22 20 19 19 19 18 19 17 17 17 18 17 18 19 18 18 17 16 15 14
32 33 32 33 34 33 35 34 35 39 36 32 31 33 36 36 36 36 35 28 24 18 22 25 24 23 19 18 19 24 21 20 19 19 20 19 19 18 20 19 19 20 21 21 19 18 18 15 14
37 34 34 34 37 41 37 38 39 36 36 35 34 29 31 36 34 38 34 29 24 19 21 24 25 23 18 22 18 24 23 23 22 22 22 21 21 21 22 23 23 23 24 23 20 18 17 16 17
39 35 40 42 47 49 48 44 45 43 34 38 40 36 35 32 35 38 34 31 27 23 22 25 24 23 19 20 22 24 23 24 24 24 23 23 24 24 25 26 26 25 25 24 21 18 17 18 19
43 42 48 45 48 54 55 55 53 48 38 38 41 43 42 37 37 38 35 32 30 25 26 26 25 21 18 22 24 23 24 23 25 25 25 26 27 27 28 28 28 27 26 25 23 20 21 21 22
46 44 47 49 50 52 53 54 55 46 35 37 39 41 44 44 40 37 35 33 33 27 27 28 25 22 22 24 26 26 25 24 24 26 27 27 29 29 29 30 30 29 28 26 25 24 24 24 26
47 51 49 50 51 59 55 55 54 39 31 35 37 37 39 41 42 33 30 32 31 30 28 28 26 24 22 24 25 27 28 26 26 27 28 28 30 30 30 31 32 30 29 28 28 28 27 27 30
53 57 54 53 55 57 54 56 46 38 33 33 35 35 34 36 39 35 31 30 30 30 29 28 28 27 27 26 27 28 30 29 27 27 30 31 31 31 32 32 33 32 32 32 32 32 32 32 35
62 62 62 60 57 51 55 49 35 34 32 32 36 33 32 34 36 36 33 31 31 29 29 32 31 31 31 29 30 31 32 33 30 30 32 32 33 33 33 34 35 35 35 35 37 37 37 38 39
60 64 66 65 62 55 47 40 35 37 35 34 35 34 35 36 34 33 35 34 33 32 32 32 33 32 34 33 34 34 34 35 33 33 35 35 35 35 35 36 37 38 39 39 40 42 42 43 44
64 68 64 65 66 58 49 42 41 41 41 36 34 35 34 35 34 34 36 35 34 31 31 31 32 35 38 37 36 35 36 37 38 38 39 39 38 37 37 38 40 40 41 42 43 45 47 49 51
68 69 67 64 60 55 49 46 43 44 42 40 36 36 32 33 35 35 36 33 34 34 31 30 33 38 41 41 39 40 40 41 43 42 43 43 42 40 40 42 43 45 45 46 47 48 49 50 52
72 68 64 57 50 53 52 48 45 44 41 41 39 36 34 32 34 36 35 34 32 33 31 30 33 37 39 41 46 43 45 44 45 45 46 47 46 45 44 46 46 47 48 49 51 53 53 54 55
54 55 50 52 51 51 53 52 46 43 45 41 41 40 36 35 35 34 37 36 35 33 34 31 31 38 40 41 43 47 48 46 46 47 48 51 49 49 49 50 51 51 50 53 54 55 55 55 56
48 47 48 50 51 50 49 51 48 43 42 40 39 40 40 38 34 36 37 39 37 36 36 34 36 38 39 42 43 46 47 44 45 49 45 47 50 52 53 56 55 56 55 57 57 58 59 59 57
46 45 45 47 49 50 50 49 44 45 42 41 41 42 44 43 41 38 38 39 38 38 35 35 35 41 41 44 45 46 44 47 52 51 55 57 60 59 58 60 61 62 61 60 61 62 62 60 56
46 44 44 45 48 52 52 49 44 47 46 44 41 43 45 44 44 44 43 40 39 39 39 40 41 41 45 47 47 51 53 55 56 56 59 61 63 66 63 62 64 66 67 65 62 62 61 58 55
35 39 38 44 46 49 49 50 50 52 49 45 43 41 41 43 42 44 45 46 45 44 43 43 45 47 49 49 50 55 59 62 63 63 66 66 65 73 63 66 64 65 66 63 62 59 57 57 55
39 40 42 41 41 41 44 51 49 49 48 47 46 45 44 43 45 45 45 46 46 47 47 46 47 50 54 54 55 65 68 67 70 71 67 68 77 66 72 70 58 61 58 55 55 56 56 55 55
42 48 42 44 44 46 49 49 46 45 44 46 47 48 48 48 49 48 46 46 47 50 49 47 48 51 55 55 63 61 61 67 68 68 50 67 71 65 55 52 43 44 48 47 49 49 50 51 54
53 47 49 52 53 55 56 56 52 49 47 44 44 47 47 48 47 47 48 44 39 38 42 42 49 54 56 55 68 67 67 58 51 44 40 47 50 53 48 48 46 46 47 46 46 48 51 53 53
58 60 59 59 58 57 57 54 52 54 51 46 45 46 46 46 47 48 48 47 47 46 44 43 46 51 56 58 59 68 82 87 73 56 56 73 62 66 67 67 59 47 42 43 50 50 51 52 57
65 63 64 62 60 59 56 54 53 53 51 49 49 47 46 48 47 48 48 47 47 49 49 50 49 47 55 68 71 73 68 74 74 60 63 74 62 54 50 50 47 42 44 45 47 54 57 58 49
Wind_Direction
300 311 315 325 332 327 309 305 304 301 287 298 300 300 305 297 292 298 308 317 311 317 316 318 306 309 311 312 317 319 318 311 315 312 297 307 306 305 307 313 307 309 304 302 306 329 352 348 13
304 313 312 314 331 322 315 305 302 305 294 302 305 303 299 304 288 284 300 308 314 316 315 308 306 310 310 311 313 314 312 305 310 305 298 295 304 295 302 307 302 302 298 291 288 285 58 118 122
302 311 315 312 320 321 323 312 310 312 323 300 300 304 303 305 293 283 294 305 310 313 310 303 307 310 307 307 309 310 306 299 304 302 298 293 294 291 296 300 299 296 285 268 272 247 173 158 145
305 309 311 309 310 318 322 320 327 317 315 309 307 293 286 289 300 292 290 299 301 306 304 303 305 305 301 304 307 306 301 297 299 300 298 292 286 285 289 292 287 281 268 245 240 248 237 226 225
301 307 313 308 305 314 318 323 322 314 310 301 304 298 289 287 296 296 295 300 299 300 298 299 300 297 298 303 306 303 294 292 296 297 291 286 283 281 280 281 277 271 264 250 239 248 250 252 252
302 303 312 306 309 315 314 321 323 322 306 300 299 294 291 288 292 290 295 310 298 294 291 295 301 299 299 300 308 302 290 288 290 290 285 278 275 278 276 267 265 264 259 254 253 253 259 268 272
301 306 314 306 308 311 310 313 316 318 304 297 294 295 289 289 298 298 295 304 304 300 288 289 295 298 297 300 302 296 287 285 285 282 280 274 270 271 264 253 254 259 257 255 257 257 261 264 270
296 299 299 298 303 303 302 308 313 312 305 288 289 293 292 290 290 299 298 296 298 302 294 294 301 302 296 296 293 287 282 279 279 277 276 278 272 265 254 251 252 256 259 260 258 258 259 262 264
288 292 295 299 303 303 296 301 304 309 312 291 282 289 293 291 290 292 292 285 287 288 289 294 299 303 293 288 287 284 282 280 274 270 270 267 268 264 259 255 257 257 257 255 253 256 258 259 262
289 292 296 300 300 295 293 296 296 304 310 292 279 276 279 284 283 284 288 281 279 286 290 295 294 293 282 296 277 282 283 282 277 272 267 266 266 264 260 258 258 260 261 258 257 259 263 264 266
288 298 297 305 306 295 293 290 290 295 303 285 279 277 274 271 274 280 283 285 287 288 287 291 287 286 273 282 280 283 281 282 282 276 270 266 265 262 262 263 263 264 261 259 255 257 262 266 268
286 297 299 304 310 309 294 288 287 284 294 276 277 280 278 272 270 273 277 283 284 283 285 284 278 276 270 276 279 281 280 279 280 276 271 264 266 265 264 264 266 265 264 260 258 257 260 264 267
286 299 303 298 307 312 298 289 287 288 282 271 273 277 279 282 276 277 278 278 281 284 282 274 270 267 266 276 279 281 279 277 275 271 269 266 264 267 267 267 267 267 266 265 260 258 262 266 271
286 293 297 296 302 305 297 286 285 288 272 272 276 277 279 280 280 281 281 279 281 276 275 265 265 259 260 271 272 273 274 272 271 268 266 264 263 262 265 267 268 267 268 266 262 261 262 264 268
286 287 292 297 298 304 300 287 292 282 270 271 279 284 287 285 284 286 276 272 268 268 266 260 259 257 258 264 268 267 267 267 266 264 263 263 259 258 261 263 264 266 268 267 265 265 266 269 270
282 285 289 291 293 302 296 284 281 272 269 271 275 279 278 279 281 282 278 271 266 262 259 250 253 251 252 260 262 263 262 263 263 263 262 261 260 260 261 263 265 264 265 265 266 267 267 269 273
283 288 286 286 293 300 294 284 281 273 271 276 277 277 277 275 275 277 277 269 263 259 255 249 254 255 254 258 255 256 258 262 264 263 264 262 261 262 262 262 263 264 268 268 268 268 270 272 274
286 286 287 290 292 294 287 282 278 276 279 279 281 278 277 275 273 271 268 266 264 263 258 258 261 263 265 264 259 259 261 265 264 262 262 263 264 263 264 264 265 266 266 266 268 272 271 273 274
283 285 285 290 291 287 282 279 279 279 279 283 281 280 277 277 271 268 270 272 269 261 257 251 253 257 261 267 264 264 261 259 261 265 266 264 262 261 261 262 265 267 269 271 269 268 270 272 276
277 281 283 285 285 281 281 281 279 278 275 276 278 281 276 269 265 270 266 266 266 266 266 261 259 257 256 258 260 263 264 261 261 262 264 264 263 263 262 262 263 264 267 268 269 271 274 276 281
274 278 280 279 279 279 281 281 278 276 277 278 280 280 277 271 266 264 267 267 266 269 263 259 261 257 257 259 259 260 259 259 260 259 260 263 264 265 266 265 266 264 264 267 269 271 274 278 284
274 274 276 278 279 280 277 278 279 280 274 274 274 275 274 269 262 262 263 264 264 264 268 265 262 261 261 259 260 262 258 259 257 257 256 263 265 267 269 269 267 267 267 269 271 275 278 279 284
275 275 275 275 277 278 276 275 282 278 277 274 270 267 269 270 269 262 260 262 266 269 269 269 268 266 265 263 261 261 267 260 259 267 264 266 268 268 268 270 272 272 272 274 276 279 284 287 285
273 274 274 273 273 273 276 278 276 277 278 274 266 265 268 270 270 270 271 269 266 271 271 272 273 270 265 262 262 264 263 265 264 262 266 269 271 269 268 270 275 277 275 276 277 278 281 281 284
270 270 271 270 269 278 279 276 279 275 277 276 273 270 264 263 266 268 270 272 274 271 268 264 263 262 261 266 269 268 267 265 267 267 268 270 272 266 273 274 272 276 275 273 275 277 277 279 282
263 263 267 269 276 277 273 273 278 278 277 276 276 274 271 266 263 261 261 263 266 266 266 264 263 268 271 270 269 264 268 269 269 269 264 282 262 277 278 268 265 273 272 272 271 272 275 279 281
263 263 273 269 267 267 272 278 282 282 281 278 274 271 271 268 267 265 263 262 261 262 262 262 261 260 263 267 257 264 250 248 277 264 250 262 271 276 264 265 267 269 271 275 277 278 280 280 281
264 268 265 267 270 272 277 279 279 281 280 276 273 271 271 273 274 275 273 269 267 255 261 263 260 260 261 261 260 256 266 265 259 259 263 267 272 275 272 274 283 280 279 281 281 280 280 279 279
266 266 268 271 271 271 272 275 274 271 268 265 264 267 272 275 274 274 273 273 269 263 260 264 265 262 261 261 258 256 257 260 269 282 265 291 291 286 287 282 295 294 284 278 281 278 278 278 277
263 264 264 265 266 265 267 268 269 265 262 260 262 266 270 270 269 268 271 273 270 272 276 281 281 276 265 264 250 268 267 272 290 303 299 298 302 300 298 296 295 285 280 276 277 277 277 276 270
Height
5890 5890 5889 5888 5889 5886 5882 5881 5880 5877 5876 5876 5876 5875 5876 5873 5873 5873 5870 5870 5869 5868 5866 5864 5862 5861 5860 5858 5857 5857 5855 5855 5854 5853 5852 5852 5851 5851 5852 5852 5852 5853 5853 5852 5851 5851 5851 5850 5851
5887 5888 5888 5887 5886 5882 5880 5877 5877 5875 5875 5873 5873 5873 5872 5873 5871 5868 5867 5867 5865 5864 5862 5861 5860 5859 5858 5856 5856 5854 5853 5853 5853 5852 5851 5850 5850 5850 5851 5852 5851 5851 5851 5851 5851 5851 5851 5851 5851
5885 5885 5886 5884 5882 5880 5878 5875 5873 5870 5874 5871 5870 5870 5870 5871 5868 5866 5863 5862 5861 5859 5859 5858 5857 5856 5855 5855 5854 5853 5852 5851 5851 5850 5849 5849 5849 5849 5849 5849 5850 5850 5850 5850 5851 5851 5851 5852 5852
5882 5883 5883 5882 5880 5878 5876 5872 5871 5868 5866 5870 5869 5868 5868 5867 5866 5864 5861 5860 5859 5857 5856 5856 5855 5854 5853 5852 5852 5851 5851 5850 5849 5849 5848 5848 5848 5847 5846 5848 5848 5848 5849 5849 5849 5850 5850 5850 5850
5879 5879 5880 5878 5877 5875 5871 5870 5867 5865 5865 5862 5862 5864 5863 5864 5863 5861 5859 5859 5856 5855 5854 5854 5853 5851 5850 5849 5849 5849 5848 5848 5848 5847 5846 5846 5846 5846 5845 5846 5847 5848 5848 5847 5847 5847 5847 5847 5846
5875 5875 5876 5875 5873 5872 5867 5867 5864 5861 5860 5857 5856 5856 5857 5859 5860 5858 5857 5856 5855 5852 5852 5851 5850 5849 5847 5847 5846 5846 5846 5845 5845 5845 5844 5844 5844 5844 5844 5844 5845 5845 5846 5846 5845 5846 5845 5845 5845
5871 5871 5872 5869 5870 5870 5864 5864 5860 5858 5855 5853 5851 5851 5852 5851 5851 5853 5852 5852 5851 5849 5847 5848 5847 5845 5844 5843 5843 5843 5843 5843 5843 5842 5842 5841 5841 5842 5843 5842 5842 5843 5844 5843 5844 5844 5844 5844 5843
5866 5866 5867 5864 5865 5866 5862 5859 5855 5852 5852 5848 5844 5845 5845 5846 5846 5845 5846 5847 5846 5845 5843 5843 5842 5840 5840 5840 5840 5839 5838 5838 5839 5839 5839 5839 5839 5839 5839 5839 5839 5841 5842 5842 5842 5842 5841 5841 5841
5860 5861 5860 5858 5857 5859 5855 5855 5852 5846 5847 5844 5842 5840 5840 5840 5840 5840 5839 5841 5842 5841 5839 5837 5837 5836 5837 5837 5836 5836 5835 5835 5834 5834 5835 5834 5835 5836 5835 5837 5837 5837 5838 5838 5837 5838 5838 5838 5838
5854 5856 5852 5853 5851 5850 5851 5847 5844 5844 5843 5838 5835 5835 5834 5833 5834 5834 5833 5835 5837 5835 5834 5833 5832 5832 5832 5832 5832 5832 5832 5832 5832 5831 5830 5831 5832 5832 5832 5832 5833 5833 5833 5833 5833 5833 5834 5834 5835
5848 5848 5846 5848 5844 5842 5841 5841 5837 5835 5843 5830 5828 5827 5826 5828 5828 5827 5826 5827 5830 5830 5829 5828 5827 5826 5827 5827 5827 5827 5827 5827 5828 5828 5828 5828 5828 5828 5827 5828 5829 5828 5829 5829 5829 5829 5830 5830 5831
5839 5840 5838 5841 5838 5833 5829 5826 5827 5826 5833 5825 5821 5819 5818 5819 5820 5821 5821 5821 5822 5824 5823 5822 5821 5820 5821 5822 5821 5821 5821 5821 5822 5823 5823 5823 5823 5824 5823 5824 5825 5824 5824 5825 5825 5824 5824 5825 5826
5829 5832 5830 5829 5830 5825 5818 5815 5812 5820 5822 5817 5815 5813 5811 5813 5814 5815 5816 5815 5814 5818 5818 5816 5815 5815 5815 5817 5816 5815 5815 5815 5816 5816 5817 5817 5817 5818 5818 5819 5819 5819 5819 5819 5819 5819 5818 5819 5820
5824 5823 5824 5824 5822 5815 5809 5803 5803 5813 5812 5808 5807 5808 5806 5805 5805 5809 5810 5809 5809 5809 5810 5809 5808 5809 5809 5810 5810 5809 5808 5809 5809 5810 5810 5810 5811 5811 5812 5812 5812 5812 5812 5812 5812 5812 5811 5812 5812
5816 5814 5814 5817 5813 5808 5802 5793 5801 5802 5799 5801 5800 5800 5801 5799 5797 5800 5801 5800 5800 5801 5802 5802 5801 5803 5803 5802 5802 5802 5801 5801 5802 5802 5802 5802 5802 5802 5804 5805 5804 5804 5804 5805 5805 5805 5804 5804 5804
5806 5805 5804 5806 5806 5805 5794 5785 5794 5792 5791 5793 5792 5792 5792 5791 5791 5792 5793 5793 5792 5793 5794 5793 5792 5794 5794 5794 5795 5794 5794 5793 5794 5795 5795 5795 5796 5797 5797 5797 5797 5797 5796 5797 5797 5797 5796 5795 5795
5799 5794 5792 5790 5793 5794 5790 5782 5786 5786 5785 5784 5786 5786 5783 5783 5783 5784 5783 5783 5783 5784 5786 5786 5785 5785 5786 5786 5785 5785 5785 5786 5787 5787 5787 5787 5788 5789 5789 5789 5788 5788 5789 5789 5789 5788 5787 5787 5786
5785 5781 5779 5780 5783 5785 5780 5777 5777 5777 5775 5779 5779 5778 5777 5776 5777 5775 5774 5774 5774 5777 5779 5780 5780 5778 5778 5778 5779 5779 5779 5778 5779 5779 5778 5779 5779 5779 5780 5780 5779 5779 5779 5778 5779 5779 5778 5777 5776
5771 5770 5767 5769 5771 5767 5770 5770 5771 5770 5769 5769 5770 5769 5771 5770 5770 5768 5767 5769 5768 5769 5770 5771 5771 5770 5769 5770 5770 5770 5770 5769 5768 5769 5769 5769 5769 5768 5768 5769 5768 5768 5768 5768 5768 5767 5767 5766 5764
5762 5761 5761 5762 5759 5754 5758 5762 5762 5762 5762 5760 5761 5763 5763 5763 5762 5762 5762 5762 5763 5761 5762 5763 5763 5761 5759 5760 5758 5759 5758 5758 5758 5758 5757 5757 5757 5758 5756 5755 5754 5754 5754 5753 5753 5753 5753 5752 5751
5750 5749 5750 5749 5746 5747 5745 5749 5752 5754 5752 5754 5753 5753 5754 5754 5754 5755 5756 5756 5756 5756 5754 5755 5755 5750 5749 5750 5750 5748 5747 5746 5746 5746 5746 5745 5745 5746 5746 5744 5743 5741 5739 5739 5738 5737 5737 5737 5737
5740 5739 5738 5737 5735 5735 5737 5737 5742 5745 5744 5744 5743 5743 5742 5743 5746 5746 5748 5748 5747 5746 5745 5747 5746 5743 5743 5741 5740 5738 5737 5736 5738 5736 5735 5733 5734 5734 5735 5734 5731 5730 5727 5726 5725 5725 5725 5724 5722
5729 5728 5729 5726 5725 5726 5725 5726 5733 5734 5736 5735 5734 5733 5732 5732 5734 5737 5738 5738 5739 5738 5739 5739 5738 5734 5734 5732 5730 5729 5727 5726 5725 5724 5723 5722 5720 5722 5721 5720 5719 5718 5716 5714 5714 5713 5712 5711 5709
5717 5718 5717 5715 5713 5713 5715 5717 5726 5723 5724 5724 5725 5724 5724 5724 5723 5724 5725 5727 5727 5726 5726 5725 5725 5725 5722 5720 5720 5718 5717 5715 5714 5714 5711 5709 5708 5706 5706 5705 5705 5703 5703 5700 5700 5698 5697 5696 5694
5707 5706 5705 5702 5701 5706 5705 5705 5713 5711 5714 5714 5713 5715 5716 5716 5716 5715 5714 5713 5712 5713 5714 5714 5712 5710 5708 5707 5707 5705 5703 5701 5699 5699 5697 5695 5691 5688 5691 5691 5689 5689 5688 5686 5685 5685 5683 5681 5680
5695 5695 5693 5690 5693 5696 5694 5693 5700 5702 5702 5701 5701 5702 5703 5704 5704 5704 5703 5703 5702 5701 5700 5700 5701 5700 5698 5699 5698 5695 5684 5681 5682 5680 5680 5678 5676 5676 5675 5673 5672 5671 5672 5672 5671 5670 5668 5666 5665
5688 5681 5687 5680 5680 5679 5682 5685 5690 5692 5691 5691 5690 5689 5689 5687 5688 5690 5691 5692 5690 5690 5688 5689 5687 5685 5684 5685 5687 5682 5665 5665 5664 5666 5659 5661 5664 5662 5660 5661 5659 5657 5658 5657 5656 5654 5653 5652 5651
5673 5675 5670 5668 5668 5667 5671 5674 5677 5680 5679 5677 5676 5676 5676 5676 5676 5676 5676 5676 5678 5677 5677 5677 5675 5674 5672 5673 5670 5659 5662 5655 5656 5652 5650 5648 5649 5651 5649 5649 5645 5644 5644 5643 5641 5640 5639 5638 5638
5659 5660 5657 5656 5656 5656 5656 5662 5666 5665 5664 5662 5662 5663 5664 5665 5666 5664 5662 5660 5660 5661 5662 5664 5665 5665 5661 5660 5654 5651 5650 5644 5639 5632 5629 5628 5630 5631 5629 5631 5630 5630 5630 5630 5628 5627 5626 5624 5624
5641 5644 5642 5641 5642 5644 5645 5648 5650 5651 5650 5649 5649 5649 5650 5651 5651 5648 5648 5649 5650 5650 5648 5647 5647 5648 5647 5641 5638 5631 5627 5626 5624 5620 5613 5609 5609 5612 5613 5613 5613 5616 5616 5616 5615 5614 5610 5609 5608